Location: Gerlach
(40.6516°N, 119.3568°W)
Time: 09:55:52
(UTC-08:00)

Vanguard 1 - Visible Passes

Search period start: 09 December 2023 00:00
Search period end: 19 December 2023 00:00
Orbit: 652 x 3828 km, 34.3° (Epoch: 08 December)

Date Brightness Start Highest point End Pass type
(mag) Time Alt. Az. Time Alt. Az. Time Alt. Az.
09 Dec 12.5 16:45:52 10° SW 16:57:48 60° SSE 17:18:17 10° E visible
09 Dec 12.6 19:06:11 10° W 19:22:26 72° S 19:32:45 42° ESE visible
09 Dec 13.0 21:28:51 10° W 21:45:25 54° SW 21:45:25 54° SW visible
09 Dec 14.1 23:55:15 10° W 23:58:05 15° W 23:58:05 15° W visible
10 Dec 12.5 17:06:04 10° WSW 17:18:22 65° SSE 17:39:25 10° E visible
10 Dec 12.7 19:26:46 10° W 19:43:22 70° S 19:52:05 47° SE visible
10 Dec 13.2 21:49:45 10° W 22:04:46 46° SW 22:04:46 46° SW visible
11 Dec 12.5 17:26:23 10° WSW 17:39:04 69° S 17:58:49 14° E visible
11 Dec 12.7 19:47:24 10° W 20:04:17 66° SSW 20:11:30 51° SE visible
11 Dec 13.3 22:10:50 10° W 22:24:11 39° WSW 22:24:11 39° WSW visible
12 Dec 12.5 17:46:46 10° WSW 17:59:50 70° S 18:18:19 17° E visible
12 Dec 12.8 20:08:04 10° W 20:25:09 61° SSW 20:31:01 52° SSE visible
12 Dec 13.5 22:32:09 10° W 22:43:42 31° WSW 22:43:42 31° WSW visible
13 Dec 12.5 18:07:14 10° W 18:20:40 70° S 18:37:55 20° ESE visible
13 Dec 12.9 20:28:47 10° W 20:45:57 55° SSW 20:50:38 50° S visible
13 Dec 13.7 22:53:53 10° W 23:03:20 25° WSW 23:03:20 25° WSW visible
14 Dec 12.6 18:27:43 10° W 18:41:31 68° S 18:57:40 23° ESE visible
14 Dec 13.1 20:49:37 10° W 21:06:40 49° SSW 21:10:23 46° S visible
14 Dec 13.9 23:16:18 10° W 23:23:06 18° WSW 23:23:06 18° WSW visible
15 Dec 12.6 18:48:15 10° W 19:02:21 64° SSW 19:17:35 25° ESE visible
15 Dec 13.2 21:10:36 10° W 21:27:17 42° SSW 21:30:19 40° SSW visible
15 Dec 14.1 23:40:09 10° WSW 23:43:04 13° WSW 23:43:04 13° WSW visible
16 Dec 12.3 16:48:23 10° WSW 16:59:01 68° S 17:18:27 10° E visible
16 Dec 12.7 19:08:49 10° W 19:23:10 59° SSW 19:37:42 26° SE visible
16 Dec 13.4 21:31:49 10° W 21:47:50 35° SW 21:50:28 34° SSW visible
17 Dec 12.3 17:08:46 10° W 17:19:44 67° S 17:39:33 10° ESE visible
17 Dec 12.9 19:29:28 10° W 19:43:57 53° SSW 19:58:06 25° SE visible
17 Dec 13.6 21:53:28 10° W 22:08:20 28° SW 22:10:53 27° SSW visible
18 Dec 12.4 17:29:12 10° W 17:40:28 65° S 18:00:32 10° ESE visible
18 Dec 13.1 19:50:13 10° W 20:04:40 46° SSW 20:18:51 23° SSE visible
18 Dec 13.9 22:15:50 10° W 22:28:46 21° SW 22:31:39 20° SW visible
